Showing default

IRIDIUM 141, 43077

Orbit data source: Space-Track

IRIDIUM 141, 43077 is a payload satellite owned by Iridium (US) in LEO that was launched on Sat, 23 Dec 2017 UTC via an FALCON 9 launch vehicle from the Air Force Western Test Range (AFWTR). Payloads include a variety of satellites, spacecraft, and rockets equipped with specific instruments for various scientific and technological missions. These include communications satellites like Starlink; space stations such as the ISS; scientific satellites like the Hubble; Earth observation satellites from companies like Planet Labs, Umbra, and HawkEye 360; GPS; miniature CubeSats for education and research; and military/defense satellites.

Loading next visibility...
IRIDIUM 141 details
Identifier
43077, 2017-083H
Orbit
LEO
Last TLE update12 hours ago
Origin
Flag of USIridium (US)
ManufacturerOATK SSG Gilbert
MissionOperational Commercial Communications
Bus & MotorELITEBUS, Unknown motor
Mass860 kg wet, 700 kg dry
Launch date (UTC)
2017-12-23 (7 years ago)
Launch vehicle
FALCON 9
Launch site
Air Force Western Test Range (AFWTR)
Object type
Payload
Rocket body
Debris
Shape & HBRTrap Box + 2 Pan, 9.4 m
Radar Cross Section14.423 m², Large (>1 m²)

Expand to show TLE details & history

TLE from 12 hours ago
0 IRIDIUM 141
1 43077U 17083H   24339.86809784  .00000674  00000-0  23350-3 0  9994
2 43077  86.3999 195.7419 0002286  81.3290 278.8165 14.34216213364001
Epoch: 2024-12-04T20:50Z
Definitive object data (Epoch: 2024-12-04T20:50:03.653Z)
Latitude0.00001°
Longitude169.0696°
Altitude780.473 km
Speed7.464 km/s
True Right ascension13h 02m 58s
True Declination0° 00' 00"
Sunlit
Object was in daylight at TLE epoch
Visualization TLE readout
Latitude52.97849°
Longitude-15.90471°
Altitude785.295 km
Speed7.467 km/s
Apparent Right ascension21h 42m 03s
Apparent Declination13° 19' 40"
Sunlit
Object is in full shadow
Visualization observer readout
Local Sidereal Time07:06:53
Azimuth317.421° NNW
Elevation-25.708°
Doppler factor1
Orbital elements
Apogee altitude776.272 km
Perigee altitude773.002 km
Semi-major axis7,152.774 km
Eccentricity0.0002286
Inclination86.3999°
RAAN195.7419°
Arg. of periapsis81.329°
True anomaly278.79061°
Mean anomaly278.8165°
Eccentric anomaly278.80356°
Mean motion3.58783 °/min
BSTAR0.0002335
Orbital period100.34 mins
Loading maneuver chart data...
Loading historical data...
Loading historical data...
Loading historical data...
Loading historical data...
Loading historical data...
Loading historical data...
Loading historical data...

IRIDIUM 141 Visibility forecast

Observer location: undefined°, undefined

Span
Click to sort rows by Start time (UTC) header in descending order
Start Az.
Max El. time (UTC)
Max El. Az.
Max El.
End time (UTC)
End Az.
8 mins2024-12-05 15:22:42.980Z192.716° SSW2024-12-05 15:26:42.980Z303.329° NW42.646°2024-12-05 15:30:42.980Z356.227° N
7 mins2024-12-06 01:53:42.980Z31.233° NE2024-12-06 01:56:42.980Z79.596° E26.022°2024-12-06 02:00:42.980Z136.787° SSE
7 mins2024-12-06 03:34:42.980Z321.362° NNW2024-12-06 03:37:42.980Z268.998° W26.198°2024-12-06 03:41:42.980Z217.702° SW
|